Home > Weather > Evansville > Past weeks

Flag for U.S.A. Weather for the Past 2 Weeks in Evansville, Indiana, U.S.A.

Now
32 °F

Snow. Dense fog.


Feels Like: 21 °F
Forecast: 27 / 42 °F
Wind: 17 mph from West

Location: Evansville Regional Airport

Current Time: Feb 8, 2016 at 2:06:51 PM

Latest Report: Feb 8, 2016 at 12:54 PM


Visibility: 0 mi

Pressure: 29.79 "Hg

Humidity: 79%

Dew point: 26 °F

Location of EvansvilleLocation

Historic Weather in Evansville — Graph

°F

Evansville Temperature Yesterday

Maximum temperature yesterday: 57 °F (at 1:54 PM)
Minimum temperature yesterday: 34 °F (at 5:54 AM)
Average temperature yesterday: 46 °F

High & Low Weather Summary for the Past Weeks

 TemperatureHumidityPressure
High67 °F (Jan 31, 1:54 PM)88% (Feb 8, 5:54 AM)30.45 "Hg (Feb 8, 5:54 AM)
Low25 °F (Feb 4, 11:54 PM)29% (Feb 7, 1:54 PM)29.54 "Hg (Feb 2, 9:54 PM)
Average43 °F61%30.03 "Hg
* Reported Jan 24 12:54 PM — Feb 8 12:54 PM, Evansville, Weather by CustomWeather, © 2016

Note: Actual official high and low records may vary slightly from our data, if they occured in-between our weather recording intervals... More about our weather records

Advertising

Evansville Weather History for the Previous 24 Hours

 ConditionsComfort  
Time TempWeatherWind HumidityBarometerVisibility
12:54 PM
Mon, Feb 8
32 °FSnow. Dense fog.17 mph79%29.79 "Hg1 mi
11:54 AM34 °FMostly cloudy.15 mph70%29.79 "Hg10 mi
10:54 AM36 °FOvercast.18 mph64%29.78 "Hg10 mi
9:54 AM39 °FMostly cloudy.12 mph70%29.77 "Hg10 mi
8:54 AM37 °FMostly cloudy.9 mph82%29.77 "Hg10 mi
7:54 AM36 °FMostly cloudy.7 mph85%29.77 "Hg10 mi
6:54 AM34 °FPassing clouds.6 mph88%29.76 "Hg10 mi
5:54 AM35 °FMostly cloudy.6 mph88%29.76 "Hg10 mi
4:54 AM36 °FLight snow. Fog.8 mph85%29.78 "Hg6 mi
3:54 AM38 °FOvercast.8 mph83%29.77 "Hg10 mi
2:54 AM37 °FOvercast.No wind86%29.78 "Hg10 mi
1:54 AM38 °FClear.No wind83%29.79 "Hg10 mi
12:54 AM40 °FOvercast.No wind77%29.81 "Hg10 mi
11:54 PM
Sun, Feb 7
43 °FLight rain. Mostly cloudy.7 mph71%29.84 "Hg10 mi
10:54 PM47 °FMostly cloudy.12 mph54%29.86 "Hg10 mi
9:54 PM49 °FMostly cloudy.7 mph48%29.86 "Hg10 mi
8:54 PM49 °FOvercast.6 mph50%29.86 "Hg10 mi
7:54 PM48 °FClear.8 mph50%29.86 "Hg10 mi
6:54 PM51 °FMostly cloudy.13 mph42%29.88 "Hg10 mi
5:54 PM51 °FPassing clouds.12 mph39%29.88 "Hg10 mi
4:54 PM54 °FClear.14 mph33%29.90 "Hg10 mi
3:54 PM56 °FSunny.20 mph33%29.90 "Hg10 mi
2:54 PM57 °FSunny.21 mph29%29.90 "Hg10 mi
Weather by CustomWeather, © 2016

See weather overviewHow to use our weather pages